Location: Callanans Corners
(42.5326°N, 73.8846°W)
Time: 14:51:17
(UTC+00:00)

Cosmos 2219 Rocket - Pass Details

Date: 06 October 2022
Orbit: 829 x 845 km, 71.0° (Epoch: 28 November)

Event Time Altitude Azimuth Distance (km) Brightness Sun altitude
Rises 23:39:35 0° 162° (SSE) 3,389 5.1 -14.0°
Reaches altitude 10° 23:42:37 10° 146° (SE) 2,459 4.2 -14.5°
Enters shadow 23:44:29 17° 128° (SE) 2,038 3.7 -14.9°
